Weather in Exeter

United Kingdom     50°43′08″N   3°30′39″W
temp.,
°C
wind,
m/s
gust,
m/s
humid.,
%
clouds,
%
prec.,
mm/h
press.,
hPa
HPBL,
m
12 april, mon
mon1201:00−1wnw22854 0.0 102819
04:00−1w228599 0.0 102823
07:00+3wnw5118398 0.0 1028437
10:00+7wnw6984100 0.2 10291100
13:00+8nw567299 0.9 10301366
16:00+9nw6664100 0.2 10301425
19:00+7nw467344 0.3 1031393
22:00+2nw22895 0.0 103317
13 april, tue
tue1301:00+1nw11925 0.0 103314
04:000nnw11925 0.0 103315
07:00+1nw11926 0.0 103315
10:00+8se007471 0.0 1034431
13:00+9se326688 0.1 1033969
16:00+10sse326959 0.3 1032861
19:00+8sse228095 0.5 1032111
22:00+6ssw118269 0.1 103318
14 april, wed
wed1401:00+4ese008743 0.1 103313
04:00+2n11905 0.0 103213
07:00+2n22928 0.0 103221
10:00+8ene237760 0.0 1033564
13:00+10ese346896 0.2 10321164
16:00+9ese337485 0.3 1031667
19:00+8se34847 0.6 1032244
22:00+3ne00885 0.0 103325
15 april, thu
thu1501:00+2nne11900 0.0 103314
04:00+1nne22903 0.0 103219
07:000nne22895 0.0 103335
10:00+6ene46725 0.0 1033606
13:00+9ene565776 0.0 10311509
16:00+9ene465474 0.0 10301688
19:00+7ene367481 0.1 1029257
22:00+1ne33883 0.1 103146
16 april, fri
fri1601:000nne33905 0.1 103041
04:00−1nne22925 0.0 103136
07:00−1nne35915 0.0 1031107
10:00+6ene57631 0.0 1031611
13:00+9ene56535 0.0 10301638
16:00+10ene455264 0.0 10291732
19:00+8ne357110 0.0 1029170
22:00